This is the latest recevied weather packets stored in our database for station/object HA3YA-WX. If no packets are shown the sender has not sent any weather packets the latest 10 day(s).
| Time | Temp. | Humidity | Pressure | Rain* | Wind** | Luminosity | Snow |
|---|---|---|---|---|---|---|---|
| 1777465292 | 16.11° C | 34% | 1008 hPa | - | - | - | - |
| 1777464692 | 16.11° C | 34% | 1009.1 hPa | - | - | - | - |
| 1777464093 | 15.56° C | 34% | 1009.1 hPa | - | - | - | - |
| 1777463493 | 15.56° C | 35% | 1009.1 hPa | - | - | - | - |
| 1777462892 | 15° C | 34% | 1009.1 hPa | - | - | - | - |
| 1777462292 | 15.56° C | 34% | 1009 hPa | - | - | - | - |
| 1777461693 | 15.56° C | 34% | 1009 hPa | - | - | - | - |
| 1777461092 | 15.56° C | 34% | 1009 hPa | - | - | - | - |
| 1777460492 | 16.11° C | 34% | 1009.5 hPa | - | - | - | - |
| 1777459893 | 16.11° C | 34% | 1009.5 hPa | - | - | - | - |
| 1777459293 | 15.56° C | 34% | 1009.5 hPa | - | - | - | - |
| 1777458692 | 15.56° C | 34% | 1009.7 hPa | - | - | - | - |
| 1777458093 | 15.56° C | 34% | 1009.7 hPa | - | - | - | - |
| 1777457493 | 15.56° C | 34% | 1009.7 hPa | - | - | - | - |
| 1777456892 | 15.56° C | 34% | 1009.7 hPa | - | - | - | - |
| 1777456293 | 15° C | 35% | 1009.7 hPa | - | - | - | - |
| 1777455693 | 14.44° C | 35% | 1009 hPa | - | - | - | - |
| 1777455092 | 13.89° C | 35% | 1009 hPa | - | - | - | - |
| 1777454493 | 13.89° C | 35% | 1009 hPa | - | - | - | - |
| 1777453892 | 13.33° C | 35% | 1009.8 hPa | - | - | - | - |
| 1777453293 | 13.33° C | 35% | 1009.8 hPa | - | - | - | - |
| 1777452693 | 13.33° C | 35% | 1009.8 hPa | - | - | - | - |
| 1777452092 | 12.78° C | 35% | 1010 hPa | - | - | - | - |
| 1777451492 | 12.78° C | 36% | 1010 hPa | - | - | - | - |
| 1777450892 | 12.78° C | 36% | 1010 hPa | - | - | - | - |
* Rain since midnight (hover to see other rain measurements)
** Current wind speed in m/s (hover to see current wind gust speed)